Time,TemperatureF,DewpointF,PressureIn,WindDirection,WindDirectionDegrees,WindSpeedMPH,WindSpeedGustMPH,Humidity,HourlyPrecipIn,Conditions,Clouds,dailyrainin,SoftwareType,DateUTC
2013-03-24 00:02:00,30.0,23.0,-100.00,West,260,1.0,3.0,73,0.00,,,0.00,,2013-03-24 05:02:00,
2013-03-24 00:12:00,30.0,23.0,-100.00,NNW,330,1.0,2.0,74,0.00,,,0.00,,2013-03-24 05:12:00,
2013-03-24 00:22:00,30.0,23.0,-100.00,NW,320,1.0,3.0,74,0.00,,,0.00,,2013-03-24 05:22:00,
2013-03-24 00:32:00,30.0,23.0,-100.00,NNW,330,1.0,3.0,75,0.00,,,0.00,,2013-03-24 05:32:00,
2013-03-24 00:42:00,30.0,23.0,-100.00,NW,325,2.0,3.0,75,0.00,,,0.00,,2013-03-24 05:42:00,
2013-03-24 00:52:00,30.0,23.0,-100.00,West,270,1.0,3.0,76,0.00,,,0.00,,2013-03-24 05:52:00,
2013-03-24 01:02:00,30.0,23.0,-100.00,WNW,295,1.0,2.0,76,0.00,,,0.00,,2013-03-24 06:02:00,
2013-03-24 01:12:00,30.0,23.0,-100.00,NNW,345,1.0,2.0,76,0.00,,,0.00,,2013-03-24 06:12:00,
2013-03-24 01:22:00,30.0,23.0,-100.00,NW,320,1.0,3.0,76,0.00,,,0.00,,2013-03-24 06:22:00,
2013-03-24 01:32:00,30.0,23.0,-100.00,NW,305,2.0,3.0,76,0.00,,,0.00,,2013-03-24 06:32:00,
2013-03-24 01:42:00,30.0,23.0,-100.00,WNW,290,1.0,2.0,76,0.00,,,0.00,,2013-03-24 06:42:00,
2013-03-24 01:52:00,30.0,23.0,-100.00,WNW,290,2.0,2.0,77,0.00,,,0.00,,2013-03-24 06:52:00,
2013-03-24 02:02:00,30.0,23.0,-100.00,NW,310,1.0,3.0,77,0.00,,,0.00,,2013-03-24 07:02:00,
2013-03-24 02:12:00,30.0,23.0,-100.00,WNW,290,1.0,3.0,77,0.00,,,0.00,,2013-03-24 07:12:00,
2013-03-24 02:22:00,30.0,23.0,-100.00,West,260,1.0,4.0,77,0.00,,,0.00,,2013-03-24 07:22:00,
2013-03-24 02:32:00,30.0,25.0,-100.00,NW,320,1.0,2.0,78,0.00,,,0.00,,2013-03-24 07:32:00,
2013-03-24 02:42:00,30.0,25.0,-100.00,NNW,335,1.0,2.0,78,0.00,,,0.00,,2013-03-24 07:42:00,
2013-03-24 02:52:00,30.0,25.0,-100.00,West,260,1.0,2.0,78,0.00,,,0.00,,2013-03-24 07:52:00,
2013-03-24 03:03:00,30.0,25.0,-100.00,WNW,285,1.0,2.0,78,0.00,,,0.00,,2013-03-24 08:03:00,
2013-03-24 03:12:00,30.0,25.0,-100.00,NNW,335,1.0,2.0,79,0.00,,,0.00,,2013-03-24 08:12:00,
2013-03-24 03:22:00,30.0,25.0,-100.00,NNW,335,1.0,3.0,79,0.00,,,0.00,,2013-03-24 08:22:00,
2013-03-24 03:32:00,30.0,25.0,-100.00,NNW,340,1.0,2.0,79,0.00,,,0.00,,2013-03-24 08:32:00,
2013-03-24 03:42:00,30.0,25.0,-100.00,NW,315,1.0,2.0,79,0.00,,,0.00,,2013-03-24 08:42:00,
2013-03-24 03:52:00,30.0,25.0,-100.00,NW,325,3.0,4.0,80,0.00,,,0.00,,2013-03-24 08:52:00,
2013-03-24 04:02:00,30.0,25.0,-100.00,NNW,345,2.0,3.0,80,0.00,,,0.00,,2013-03-24 09:02:00,
2013-03-24 04:12:00,30.0,25.0,-100.00,NNW,345,3.0,4.0,80,0.00,,,0.00,,2013-03-24 09:12:00,
2013-03-24 04:22:00,30.0,25.0,-100.00,North,0,2.0,6.0,80,0.00,,,0.00,,2013-03-24 09:22:00,
2013-03-24 04:33:00,30.0,25.0,-100.00,North,0,4.0,5.0,81,0.00,,,0.00,,2013-03-24 09:33:00,
2013-03-24 04:42:00,30.0,25.0,-100.00,NNE,25,2.0,4.0,81,0.00,,,0.00,,2013-03-24 09:42:00,
2013-03-24 04:52:00,30.0,25.0,-100.00,North,0,2.0,4.0,81,0.00,,,0.00,,2013-03-24 09:52:00,
2013-03-24 05:03:00,29.0,25.0,-100.00,North,350,4.0,5.0,81,0.00,,,0.00,,2013-03-24 10:03:00,
2013-03-24 05:12:00,29.0,25.0,-100.00,North,350,3.0,6.0,82,0.00,,,0.00,,2013-03-24 10:12:00,
2013-03-24 05:22:00,29.0,25.0,-100.00,NNW,345,3.0,6.0,82,0.00,,,0.00,,2013-03-24 10:22:00,
2013-03-24 05:32:00,29.0,25.0,-100.00,NW,325,2.0,6.0,82,0.00,,,0.00,,2013-03-24 10:32:00,
2013-03-24 05:42:00,29.0,25.0,-100.00,NW,325,2.0,3.0,82,0.00,,,0.00,,2013-03-24 10:42:00,
2013-03-24 05:52:00,29.0,25.0,-100.00,NNW,340,2.0,3.0,82,0.00,,,0.00,,2013-03-24 10:52:00,
2013-03-24 06:03:00,29.0,25.0,-100.00,NNW,335,2.0,4.0,82,0.00,,,0.00,,2013-03-24 11:03:00,
2013-03-24 06:12:00,29.0,25.0,-100.00,NNW,340,2.0,4.0,82,0.00,,,0.00,,2013-03-24 11:12:00,
2013-03-24 06:22:00,29.0,25.0,-100.00,North,350,2.0,4.0,82,0.00,,,0.00,,2013-03-24 11:22:00,
2013-03-24 06:32:00,29.0,25.0,-100.00,NW,325,3.0,6.0,82,0.00,,,0.00,,2013-03-24 11:32:00,
2013-03-24 06:42:00,29.0,25.0,-100.00,NNW,340,2.0,5.0,82,0.00,,,0.00,,2013-03-24 11:42:00,
2013-03-24 06:52:00,29.0,25.0,-100.00,North,350,2.0,5.0,82,0.00,,,0.00,,2013-03-24 11:52:00,
2013-03-24 07:02:00,29.0,25.0,-100.00,North,0,3.0,5.0,81,0.00,,,0.00,,2013-03-24 12:02:00,
2013-03-24 07:12:00,29.0,25.0,-100.00,NNW,335,2.0,5.0,81,0.00,,,0.00,,2013-03-24 12:12:00,
2013-03-24 07:22:00,29.0,25.0,-100.00,North,350,3.0,4.0,81,0.00,,,0.00,,2013-03-24 12:22:00,
2013-03-24 07:32:00,29.0,25.0,-100.00,NE,35,3.0,6.0,81,0.00,,,0.00,,2013-03-24 12:32:00,
2013-03-24 07:42:00,29.0,25.0,-100.00,NNE,20,2.0,4.0,81,0.00,,,0.00,,2013-03-24 12:42:00,
2013-03-24 07:52:00,29.0,25.0,-100.00,North,355,1.0,5.0,81,0.00,,,0.00,,2013-03-24 12:52:00,
2013-03-24 08:02:00,29.0,25.0,-100.00,North,355,4.0,6.0,81,0.00,,,0.00,,2013-03-24 13:02:00,
2013-03-24 08:12:00,29.0,25.0,-100.00,North,5,4.0,7.0,81,0.00,,,0.00,,2013-03-24 13:12:00,
2013-03-24 08:22:00,29.0,25.0,-100.00,North,5,4.0,7.0,81,0.00,,,0.00,,2013-03-24 13:22:00,
2013-03-24 08:32:00,29.0,25.0,-100.00,NNE,15,4.0,7.0,81,0.00,,,0.00,,2013-03-24 13:32:00,
2013-03-24 08:42:00,29.0,25.0,-100.00,North,5,4.0,8.0,80,0.00,,,0.00,,2013-03-24 13:42:00,
2013-03-24 08:52:00,29.0,25.0,-100.00,North,5,2.0,9.0,80,0.00,,,0.00,,2013-03-24 13:52:00,
2013-03-24 09:02:00,29.0,25.0,-100.00,North,355,4.0,9.0,80,0.00,,,0.00,,2013-03-24 14:02:00,
2013-03-24 09:12:00,29.0,25.0,-100.00,North,0,4.0,7.0,80,0.00,,,0.00,,2013-03-24 14:12:00,
2013-03-24 09:22:00,29.0,25.0,-100.00,North,10,4.0,9.0,80,0.00,,,0.00,,2013-03-24 14:22:00,
2013-03-24 09:32:00,29.0,25.0,-100.00,NE,45,3.0,10.0,79,0.00,,,0.00,,2013-03-24 14:32:00,
2013-03-24 09:42:00,30.0,25.0,-100.00,NNE,30,4.0,9.0,78,0.00,,,0.00,,2013-03-24 14:42:00,
2013-03-24 09:52:00,30.0,23.0,-100.00,NNE,25,4.0,9.0,76,0.00,,,0.00,,2013-03-24 14:52:00,
2013-03-24 10:02:00,30.0,23.0,-100.00,NE,35,6.0,11.0,75,0.00,,,0.00,,2013-03-24 15:02:00,
2013-03-24 10:12:00,30.0,23.0,-100.00,North,10,9.0,12.0,74,0.00,,,0.00,,2013-03-24 15:12:00,
2013-03-24 10:22:00,31.0,23.0,-100.00,North,10,6.0,11.0,74,0.00,,,0.00,,2013-03-24 15:22:00,
2013-03-24 10:33:00,31.0,23.0,-100.00,North,10,6.0,12.0,73,0.00,,,0.00,,2013-03-24 15:33:00,
2013-03-24 10:43:00,31.0,23.0,-100.00,NE,55,7.0,12.0,74,0.00,,,0.00,,2013-03-24 15:43:00,
2013-03-24 10:53:00,31.0,23.0,-100.00,North,10,9.0,14.0,74,0.00,,,0.00,,2013-03-24 15:53:00,
2013-03-24 11:03:00,30.0,23.0,-100.00,NNE,20,7.0,14.0,74,0.00,,,0.00,,2013-03-24 16:03:00,
2013-03-24 11:12:00,30.0,23.0,-100.00,North,10,10.0,15.0,74,0.00,,,0.00,,2013-03-24 16:12:00,
2013-03-24 11:22:00,30.0,23.0,-100.00,NNE,20,10.0,17.0,75,0.00,,,0.00,,2013-03-24 16:22:00,
2013-03-24 11:33:00,30.0,23.0,-100.00,North,10,9.0,16.0,75,0.00,,,0.00,,2013-03-24 16:33:00,
2013-03-24 11:42:00,31.0,23.0,-100.00,NNE,30,9.0,16.0,75,0.00,,,0.00,,2013-03-24 16:42:00,
2013-03-24 11:52:00,31.0,23.0,-100.00,NNE,15,11.0,16.0,75,0.00,,,0.00,,2013-03-24 16:52:00,
2013-03-24 12:02:00,31.0,25.0,-100.00,NNE,20,5.0,15.0,75,0.00,,,0.00,,2013-03-24 17:02:00,
2013-03-24 12:12:00,31.0,25.0,-100.00,NNE,25,8.0,16.0,74,0.00,,,0.00,,2013-03-24 17:12:00,
2013-03-24 12:22:00,31.0,23.0,-100.00,NNE,20,7.0,14.0,74,0.00,,,0.00,,2013-03-24 17:22:00,
2013-03-24 12:32:00,31.0,25.0,-100.00,North,5,6.0,15.0,74,0.00,,,0.00,,2013-03-24 17:32:00,
2013-03-24 12:42:00,31.0,23.0,-100.00,NNE,30,6.0,14.0,75,0.00,,,0.00,,2013-03-24 17:42:00,
2013-03-24 12:52:00,31.0,25.0,-100.00,North,5,7.0,14.0,75,0.00,,,0.00,,2013-03-24 17:52:00,
2013-03-24 13:03:00,32.0,25.0,-100.00,North,0,6.0,16.0,75,0.00,,,0.00,,2013-03-24 18:03:00,
2013-03-24 13:12:00,32.0,25.0,-100.00,NNE,15,7.0,11.0,74,0.00,,,0.00,,2013-03-24 18:12:00,
2013-03-24 13:22:00,32.0,25.0,-100.00,ENE,60,9.0,13.0,74,0.00,,,0.00,,2013-03-24 18:22:00,
2013-03-24 13:32:00,31.0,25.0,-100.00,North,10,7.0,12.0,75,0.00,,,0.00,,2013-03-24 18:32:00,
2013-03-24 13:42:00,31.0,25.0,-100.00,NNE,20,7.0,13.0,75,0.00,,,0.00,,2013-03-24 18:42:00,
2013-03-24 13:52:00,31.0,25.0,-100.00,NNE,20,6.0,12.0,76,0.00,,,0.00,,2013-03-24 18:52:00,
2013-03-24 14:02:00,31.0,25.0,-100.00,NNE,25,6.0,9.0,76,0.00,,,0.00,,2013-03-24 19:02:00,
2013-03-24 14:12:00,31.0,25.0,-100.00,North,350,7.0,12.0,76,0.00,,,0.00,,2013-03-24 19:12:00,
2013-03-24 14:22:00,31.0,25.0,-100.00,NNE,20,10.0,15.0,76,0.00,,,0.00,,2013-03-24 19:22:00,
2013-03-24 14:32:00,31.0,25.0,-100.00,NNE,25,6.0,12.0,77,0.00,,,0.00,,2013-03-24 19:32:00,
2013-03-24 14:42:00,31.0,25.0,-100.00,North,0,6.0,12.0,77,0.00,,,0.00,,2013-03-24 19:42:00,
2013-03-24 14:52:00,31.0,25.0,-100.00,NNE,15,7.0,14.0,77,0.00,,,0.00,,2013-03-24 19:52:00,
2013-03-24 15:02:00,31.0,25.0,-100.00,NNE,15,6.0,13.0,77,0.00,,,0.00,,2013-03-24 20:02:00,
2013-03-24 15:12:00,31.0,25.0,-100.00,NNE,15,6.0,13.0,77,0.00,,,0.00,,2013-03-24 20:12:00,
2013-03-24 15:22:00,31.0,25.0,-100.00,NNE,15,8.0,13.0,77,0.00,,,0.00,,2013-03-24 20:22:00,
2013-03-24 15:32:00,31.0,25.0,-100.00,North,5,9.0,13.0,77,0.00,,,0.00,,2013-03-24 20:32:00,
2013-03-24 15:42:00,32.0,25.0,-100.00,North,355,10.0,16.0,76,0.00,,,0.00,,2013-03-24 20:42:00,
2013-03-24 15:52:00,32.0,25.0,-100.00,North,5,7.0,17.0,76,0.00,,,0.00,,2013-03-24 20:52:00,
2013-03-24 16:02:00,32.0,25.0,-100.00,North,5,6.0,12.0,75,0.00,,,0.00,,2013-03-24 21:02:00,
2013-03-24 16:12:00,32.0,25.0,-100.00,NNE,15,7.0,13.0,75,0.00,,,0.00,,2013-03-24 21:12:00,
2013-03-24 16:22:00,32.0,25.0,-100.00,NNE,20,7.0,12.0,75,0.00,,,0.00,,2013-03-24 21:22:00,
2013-03-24 16:33:00,32.0,25.0,-100.00,NNE,25,7.0,18.0,74,0.00,,,0.00,,2013-03-24 21:33:00,
2013-03-24 16:43:00,33.0,25.0,-100.00,NNE,20,6.0,14.0,74,0.00,,,0.00,,2013-03-24 21:43:00,
2013-03-24 16:52:00,33.0,25.0,-100.00,North,5,9.0,16.0,72,0.00,,,0.00,,2013-03-24 21:52:00,
2013-03-24 17:02:00,33.0,25.0,-100.00,North,10,6.0,13.0,71,0.00,,,0.00,,2013-03-24 22:02:00,
2013-03-24 17:13:00,34.0,25.0,-100.00,North,5,6.0,12.0,71,0.00,,,0.00,,2013-03-24 22:13:00,
2013-03-24 17:22:00,34.0,25.0,-100.00,North,355,8.0,14.0,70,0.00,,,0.00,,2013-03-24 22:22:00,
2013-03-24 17:33:00,34.0,25.0,-100.00,NNE,15,11.0,18.0,71,0.00,,,0.00,,2013-03-24 22:33:00,
2013-03-24 17:42:00,33.0,25.0,-100.00,NNE,20,10.0,21.0,72,0.00,,,0.00,,2013-03-24 22:42:00,
2013-03-24 17:52:00,33.0,25.0,-100.00,North,0,7.0,12.0,73,0.00,,,0.00,,2013-03-24 22:52:00,
2013-03-24 18:02:00,33.0,27.0,-100.00,NNE,15,11.0,14.0,74,0.00,,,0.00,,2013-03-24 23:02:00,
2013-03-24 18:12:00,34.0,27.0,-100.00,NNE,25,7.0,14.0,75,0.00,,,0.00,,2013-03-24 23:12:00,
2013-03-24 18:22:00,33.0,27.0,-100.00,North,10,8.0,18.0,76,0.00,,,0.00,,2013-03-24 23:22:00,
2013-03-24 18:32:00,33.0,27.0,-100.00,North,355,7.0,16.0,77,0.00,,,0.00,,2013-03-24 23:32:00,
2013-03-24 18:42:00,33.0,27.0,-100.00,North,5,8.0,15.0,78,0.00,,,0.00,,2013-03-24 23:42:00,
2013-03-24 18:52:00,32.0,27.0,-100.00,North,10,7.0,15.0,79,0.00,,,0.00,,2013-03-24 23:52:00,
2013-03-24 19:02:00,33.0,27.0,-100.00,North,350,6.0,14.0,80,0.00,,,0.00,,2013-03-25 00:02:00,
2013-03-24 19:12:00,32.0,27.0,-100.00,North,10,6.0,14.0,81,0.00,,,0.00,,2013-03-25 00:12:00,
2013-03-24 19:22:00,32.0,28.0,-100.00,NNW,345,6.0,14.0,83,0.00,,,0.00,,2013-03-25 00:22:00,
2013-03-24 19:32:00,32.0,28.0,-100.00,North,0,9.0,13.0,84,0.00,,,0.00,,2013-03-25 00:32:00,
2013-03-24 19:42:00,32.0,28.0,-100.00,North,350,11.0,16.0,85,0.00,,,0.00,,2013-03-25 00:42:00,
2013-03-24 19:52:00,32.0,28.0,-100.00,North,10,7.0,14.0,86,0.00,,,0.00,,2013-03-25 00:52:00,
2013-03-24 20:02:00,31.0,28.0,-100.00,North,5,6.0,10.0,87,0.00,,,0.00,,2013-03-25 01:02:00,
2013-03-24 20:12:00,31.0,28.0,-100.00,North,350,6.0,15.0,87,0.00,,,0.00,,2013-03-25 01:12:00,
2013-03-24 20:22:00,31.0,28.0,-100.00,North,0,6.0,13.0,87,0.00,,,0.00,,2013-03-25 01:22:00,
2013-03-24 20:32:00,31.0,28.0,-100.00,North,350,7.0,12.0,87,0.00,,,0.00,,2013-03-25 01:32:00,
2013-03-24 20:42:00,31.0,28.0,-100.00,North,0,6.0,11.0,87,0.00,,,0.00,,2013-03-25 01:42:00,
2013-03-24 20:52:00,31.0,28.0,-100.00,NNW,345,6.0,9.0,87,0.00,,,0.00,,2013-03-25 01:52:00,
2013-03-24 21:02:00,31.0,27.0,-100.00,North,355,6.0,11.0,87,0.00,,,0.00,,2013-03-25 02:02:00,
2013-03-24 21:12:00,31.0,27.0,-100.00,North,350,6.0,11.0,86,0.00,,,0.00,,2013-03-25 02:12:00,
2013-03-24 21:22:00,31.0,27.0,-100.00,North,350,4.0,9.0,86,0.00,,,0.00,,2013-03-25 02:22:00,
2013-03-24 21:32:00,31.0,27.0,-100.00,NNW,335,4.0,7.0,87,0.00,,,0.00,,2013-03-25 02:32:00,
2013-03-24 21:42:00,31.0,28.0,-100.00,North,355,6.0,9.0,87,0.00,,,0.00,,2013-03-25 02:42:00,
2013-03-24 21:52:00,31.0,28.0,-100.00,NNW,345,4.0,8.0,87,0.00,,,0.00,,2013-03-25 02:52:00,
2013-03-24 22:02:00,31.0,28.0,-100.00,NNW,345,4.0,9.0,88,0.00,,,0.00,,2013-03-25 03:02:00,
2013-03-24 22:12:00,31.0,27.0,-100.00,NNW,345,5.0,9.0,88,0.00,,,0.00,,2013-03-25 03:12:00,
2013-03-24 22:22:00,31.0,27.0,-100.00,North,0,4.0,9.0,88,0.00,,,0.00,,2013-03-25 03:22:00,
2013-03-24 22:33:00,31.0,27.0,-100.00,North,355,4.0,7.0,87,0.00,,,0.00,,2013-03-25 03:33:00,
2013-03-24 22:42:00,31.0,27.0,-100.00,North,5,4.0,9.0,85,0.00,,,0.00,,2013-03-25 03:42:00,
2013-03-24 22:52:00,31.0,27.0,-100.00,North,10,6.0,9.0,83,0.00,,,0.00,,2013-03-25 03:52:00,
2013-03-24 23:02:00,31.0,27.0,-100.00,North,0,5.0,11.0,81,0.00,,,0.00,,2013-03-25 04:02:00,
2013-03-24 23:12:00,31.0,25.0,-100.00,North,0,7.0,11.0,79,0.00,,,0.00,,2013-03-25 04:12:00,
2013-03-24 23:22:00,31.0,25.0,-100.00,North,10,7.0,14.0,77,0.00,,,0.00,,2013-03-25 04:22:00,
2013-03-24 23:33:00,31.0,25.0,-100.00,North,350,7.0,12.0,76,0.00,,,0.00,,2013-03-25 04:33:00,
2013-03-24 23:42:00,31.0,23.0,-100.00,North,10,7.0,16.0,74,0.00,,,0.00,,2013-03-25 04:42:00,
2013-03-24 23:52:00,31.0,23.0,-100.00,NNE,25,6.0,20.0,73,0.00,,,0.00,,2013-03-25 04:52:00,